Header for Extended Forecast Station List Page

Search by: ID | Name | Date | Parm | Value | Avg | % Avg
Sort by: ID | Name | Date | Parm | Value | Avg | % Avg

Enter search or view all records.

Click on id for station plot
#IDNameDateParmValueAvg% Avg
0LEOI1KOOTENAI-AT LEONIA01-30-2023DISCHARGE (KAF)28422620108
1FCFM8NF FLATHEAD-NEAR COLUMBIA FALLS01-30-2023DISCHARGE (KAF)46480058
2WGCM8MF FLATHEAD-NEAR WEST GLACIER01-30-2023DISCHARGE (KAF)54676072
3CFMM8FLATHEAD-AT COLUMBIA FALLS01-30-2023DISCHARGE (KAF)1849247475
4DLGM8CLARK FORK-AT DEER LODGE01-30-2023DISCHARGE (KAF)456371
5DRMM8CLARK FORK-NR DRUMMOND01-30-2023DISCHARGE (KAF)12917673
6RCCM8ROCK CREEK-NEAR CLINTON01-30-2023DISCHARGE (KAF)7013552
7BONM8BLACKFOOT-NEAR BONNER01-30-2023DISCHARGE (KAF)40346587
8ABOM8CLARK FORK-ABOVE MISSOULA01-30-2023DISCHARGE (KAF)62281576
9BITM8BITTERROOT-NEAR MISSOULA01-30-2023DISCHARGE (KAF)32362452
10BELM8CLARK FORK-BELOW MISSOULA01-30-2023DISCHARGE (KAF)947146665
11STRM8ST. REGIS-NEAR ST. REGIS01-30-2023DISCHARGE (KAF)14119672
12SRGM8CLARK FORK-AT ST REGIS01-30-2023DISCHARGE (KAF)1255198163
13PRTI1PRIEST-NEAR PRIEST RIVER01-30-2023DISCHARGE (KAF)49058484
14SPOW1SPOKANE-AT SPOKANE01-30-2023DISCHARGE (KAF)2181255885
15SATI1ST MARIES-NEAR SANTA01-30-2023DISCHARGE (KAF)146136107
16CIBW1COLUMBIA-AT INTL BOUNDARY01-30-2023DISCHARGE (KAF)147772092971
17LAUW1KETTLE-AT LAURIER01-30-2023DISCHARGE (KAF)715114463
18TONW1OKANOGAN-NEAR TONASKET01-30-2023DISCHARGE (KAF)54788462
19PATW1METHOW-NEAR PATEROS01-30-2023DISCHARGE (KAF)31147066
20ARDW1ENTIAT-NEAR ARDENVOIR01-30-2023DISCHARGE (KAF)649468
21PESW1WENATCHEE-AT PESHASTIN01-30-2023DISCHARGE (KAF)64581979
22EASW1YAKIMA-AT EASTON01-30-2023DISCHARGE (KAF)8410084
23TNAW1TEANAWAY-BELOW FORKS01-30-2023DISCHARGE (KAF)129126103
24UMTW1YAKIMA-AT UMTANUM01-30-2023DISCHARGE (KAF)52656693
25CLFW1NACHES-NEAR CLIFFDEL01-30-2023DISCHARGE (KAF)25327393
26NACW1NACHES-NEAR NACHES01-30-2023DISCHARGE (KAF)34739788
27PARW1YAKIMA-NEAR PARKER01-30-2023DISCHARGE (KAF)53471974
28KIOW1YAKIMA-AT KIONA01-30-2023DISCHARGE (KAF)781104075
29CHEI1FALL RIVER-NEAR CHESTER01-30-2023DISCHARGE (KAF)19922987
30ANTI1HENRYS FORK-AT ST. ANTHONY01-30-2023DISCHARGE (KAF)46752888
31TEAI1TETON-NEAR ST. ANTHONY01-30-2023DISCHARGE (KAF)15819183
32REXI1HENRYS FORK-AT REXBURG01-30-2023DISCHARGE (KAF)50458586
33JKSW4SNAKE-NEAR JACKSON01-30-2023DISCHARGE (KAF)47465972
34ALPW4SNAKE-NEAR ALPINE01-30-2023DISCHARGE (KAF)62885773
35HEII1SNAKE-NEAR HEISE01-30-2023DISCHARGE (KAF)14001300108
36SIFI1SNAKE-AB EAGLE ROCK NR IDAHO FALLS01-30-2023DISCHARGE (KAF)14201273112
37SHYI1SNAKE-NEAR SHELLEY01-30-2023DISCHARGE (KAF)13381219110
38SNAI1SNAKE-AT BLACKFOOT01-30-2023DISCHARGE (KAF)1127917123
39BFTI1SNAKE-NEAR BLACKFOOT01-30-2023DISCHARGE (KAF)1106912121
40PIHI1PORTNEUF-AT POCATELLO01-30-2023DISCHARGE (KAF)7575101
41MILI1SNAKE-AT MILNER01-30-2023DISCHARGE (KAF)485588
42HOTI1BRUNEAU-NEAR HOT SPRINGS01-30-2023DISCHARGE (KAF)7711667
43SWAI1SNAKE-BELOW SWAN FALLS01-30-2023DISCHARGE (KAF)1767190893
44HWRI1BIG LOST-AT HOWELL RANCH NEAR CHILLY01-30-2023DISCHARGE (KAF)415279
45HALI1BIG WOOD-AT HAILEY01-30-2023DISCHARGE (KAF)7110766
46BIGI1BOISE-AT GLENWOOD BRIDGE01-30-2023DISCHARGE (KAF)330169196
47PARI1BOISE-NEAR PARMA01-30-2023DISCHARGE (KAF)386239161
48EMMI1PAYETTE-NEAR EMMETT01-30-2023DISCHARGE (KAF)61385971
49WSRI1WEISER-NEAR WEISER01-30-2023DISCHARGE (KAF)34639388
50WEII1SNAKE-AT WEISER01-30-2023DISCHARGE (KAF)3357378989
51WHBI1SALMON-AT WHITEBIRD01-30-2023DISCHARGE (KAF)2064318065
52TRYO3GRANDE RONDE-TROY01-30-2023DISCHARGE (KAF)1051113293
53ANAW1SNAKE-NEAR ANATONE01-30-2023DISCHARGE (KAF)6647976068
54ORFI1CLEARWATER-AT OROFINO01-30-2023DISCHARGE (KAF)2708314886
55SPDI1CLEARWATER-AT SPALDING01-30-2023DISCHARGE (KAF)4586493093
56TCHW1WALLA WALLA-NEAR TOUCHET01-30-2023DISCHARGE (KAF)20722791
57GIBO3UMATILLA-NEAR GIBBON01-30-2023DISCHARGE (KAF)859094
58PDTO3UMATILLA-AT PENDLETON01-30-2023DISCHARGE (KAF)18320290
59MYKO3MCKAY CREEK-NEAR PILOT ROCK01-30-2023DISCHARGE (KAF)274265
60UMAO3UMATILLA-NEAR UMATILLA01-30-2023DISCHARGE (KAF)14417980
61MONO3NF JOHN DAY-AT MONUMENT01-30-2023DISCHARGE (KAF)43857277
62SERO3JOHN DAY-AT SERVICE CK01-30-2023DISCHARGE (KAF)60081973
63MODO3DESCHUTES-AT MOODY NR BIGGS01-30-2023DISCHARGE (KAF)14891457102
64PITW1KLICKITAT-NEAR PITT01-30-2023DISCHARGE (KAF)46850293
65HODO3HOOD-NEAR TUCKER BRIDGE01-30-2023DISCHARGE (KAF)289266109
66UNDW1WHITE SALMON-NEAR UNDERWOOD01-30-2023DISCHARGE (KAF)33734399
67LYDM8KOOTENAI-LIBBY DAM01-30-2023INFLOW (KAF)1769235975
68HHWM8SF FLATHEAD-HUNGRY HORSE DAM01-30-2023INFLOW (KAF)905106785
69KERM8FLATHEAD-SELI’Š KSANKA QLISPE’ DAM01-30-2023INFLOW (KAF)2135314668
70NOXM8CLARK FORK-NOXON RAPIDS DAM01-30-2023INFLOW (KAF)3390525664
71CABI1CLARK FORK-CABINET GORGE DAM01-30-2023INFLOW (KAF)3775596163
72ALFW1PEND OREILLE-ALBENI FALLS DAM01-30-2023INFLOW (KAF)4913705670
73COEI1COEUR D ALENE-COEUR D ALENE LAKE01-30-2023INFLOW (KAF)2361250994
74LLKW1SPOKANE-AT LONGLAKE01-30-2023INFLOW (KAF)2485289586
75GCDW1COLUMBIA-GRAND COULEE DAM01-30-2023INFLOW (KAF)180802446674
76CHJW1COLUMBIA-CHIEF JOSEPH DAM01-30-2023INFLOW (KAF)182362613570
77WELW1COLUMBIA-WELLS DAM01-30-2023INFLOW (KAF)190722766769
78CHDW1CHELAN-LAKE CHELAN DAM01-30-2023INFLOW (KAF)35354465
79RRHW1COLUMBIA-ROCKY REACH DAM01-30-2023INFLOW (KAF)194592826669
80WANW1COLUMBIA-WANAPUM DAM01-30-2023INFLOW (KAF)201012933369
81PRWW1COLUMBIA-PRIEST RAPIDS DAM01-30-2023INFLOW (KAF)200952941368
82KEDW1YAKIMA-KEECHELUS LAKE01-30-2023INFLOW (KAF)10795112
83KADW1KACHESS-KACHESS DAM01-30-2023INFLOW (KAF)9389105
84CLUW1CLE ELUM-CLE ELUM LAKE01-30-2023INFLOW (KAF)266255104
85BUDW1BUMPING-BUMPING LAKE DAM01-30-2023INFLOW (KAF)7675101
86RILW1TIETON-RIMROCK LAKE NEAR RIMROCK01-30-2023INFLOW (KAF)12212994
87IPDI1HENRYS FORK-ISLAND PARK DAM01-30-2023INFLOW (KAF)12414784
88JLKW4SNAKE-JACKSON LAKE AT DAM01-30-2023INFLOW (KAF)31436985
89PLDI1SF SNAKE-PALISADES DAM01-30-2023INFLOW (KAF)1085137679
90RIDI1WILLOW CREEK-RIRIE DAM01-30-2023INFLOW (KAF)4336119
91AFRI1SNAKE-AMERICAN FALLS RESERVOIR01-30-2023INFLOW (KAF)17251559111
92MACI1BIG LOST-MACKAY RESERVOIR NEAR MACKAY01-30-2023INFLOW (KAF)414592
93MAGI1BIG WOOD-MAGIC DAM01-30-2023INFLOW (KAF)8612072
94LWRI1LITTLE WOOD-LITTLE WOOD DAM01-30-2023INFLOW (KAF)5441133
95OWYO3OWYHEE-OWYHEE DAM01-30-2023INFLOW (KAF)425263162
96ARAI1SF BOISE-ANDERSON RANCH DAM01-30-2023INFLOW (KAF)29629999
97LUCI1BOISE-LUCKY PEAK DAM01-30-2023INFLOW (KAF)863728119
98WRMO3MALHEUR-WARM SPRINGS DAM01-30-2023INFLOW (KAF)607777
99BERO3MALHEUR-AGENCY VALLEY DAM01-30-2023INFLOW (KAF)454992
100BULO3BULLY CREEK-BULLY CREEK DAM01-30-2023INFLOW (KAF)305584
101CSDI1NF PAYETTE-CASCADE DAM01-30-2023INFLOW (KAF)26234077
102DEDI1DEADWOOD-NEAR LOWMAN01-30-2023INFLOW (KAF)677688
103BRNI1SNAKE-BROWNLEE DAM01-30-2023INFLOW (KAF)3758420989
104DWRI1NF CLEARWATER-DWORSHAK DAM01-30-2023INFLOW (KAF)2038204999
105LGDW1SNAKE-LOWER GRANITE DAM01-30-2023INFLOW (KAF)112341503875
106LGSW1SNAKE-LITTLE GOOSE DAM01-30-2023INFLOW (KAF)112341508474
107LMNW1SNAKE-LOWER MONUMENTAL DAM01-30-2023INFLOW (KAF)114261525675
108IHDW1SNAKE-ICE HARBOR DAM01-30-2023INFLOW (KAF)114241527275
109MCDW1COLUMBIA-MCNARY DAM01-30-2023INFLOW (KAF)323794584071
110JDAO3COLUMBIA-JOHN DAY DAM01-30-2023INFLOW (KAF)343644797372
111TDAO3COLUMBIA-THE DALLES DAM01-30-2023INFLOW (KAF)348434847772
112BONO3COLUMBIA-BONNEVILLE DAM01-30-2023INFLOW (KAF)359175056671
113HOPI1PEND OREILLE-PEND OREILLE LAKE NR HOPE01-30-2023LAKE ELEVATION (FT)MMM
114BFEI1KOOTENAI-AT BONNERS FERRY01-30-2023STAGE (FT)MMM
115SJMI1ST JOE-AT ST MARIES01-30-2023STAGE (FT)MMM